EN

Hourly Weather Gogolevka

Today, 16 May, Sunday

Time Temperature Precipitation Wind Pressure Humidity
00:00 +11°C° 0 mm 3 mps 739 mmHg 96%
01:00 +10°C° 0 mm 3 mps 740 mmHg 96%
02:00 +10°C° 0 mm 3 mps 740 mmHg 96%
03:00 +10°C° 0 mm 3 mps 740 mmHg 96%
04:00 +10°C° 0 mm 3 mps 740 mmHg 96%
05:00 +10°C° 0 mm 3 mps 740 mmHg 96%
06:00 +12°C° 0 mm 3 mps 741 mmHg 92%
07:00 +13°C° 0 mm 3 mps 741 mmHg 88%
08:00 +16°C° 0 mm 3 mps 741 mmHg 84%
09:00 +17°C° 0 mm 3 mps 741 mmHg 79%
10:00 +18°C° 0 mm 3 mps 742 mmHg 73%
11:00 +20°C° 0 mm 3 mps 742 mmHg 67%
12:00 +20°C° 0.5 mm 3 mps 742 mmHg 66%
13:00 +20°C° 0.5 mm 3 mps 742 mmHg 65%
14:00 +21°C° 0.5 mm 3 mps 742 mmHg 64%
15:00 +20°C° 0.2 mm 2 mps 742 mmHg 67%
16:00 +20°C° 0.2 mm 2 mps 742 mmHg 69%
17:00 +20°C° 0.2 mm 2 mps 742 mmHg 72%
18:00 +18°C° 0 mm 2 mps 742 mmHg 76%
19:00 +17°C° 0 mm 2 mps 742 mmHg 80%
20:00 +15°C° 0 mm 2 mps 742 mmHg 84%
21:00 +15°C° 0 mm 2 mps 742 mmHg 85%
22:00 +14°C° 0 mm 2 mps 742 mmHg 86%
23:00 +14°C° 0 mm 2 mps 742 mmHg 87%

Tomorrow, 17 May, Monday

Time Temperature Precipitation Wind Pressure Humidity
00:00 +13°C° 0 mm 2 mps 742 mmHg 88%
01:00 +13°C° 0 mm 2 mps 742 mmHg 89%
02:00 +13°C° 0 mm 2 mps 742 mmHg 90%
03:00 +13°C° 0 mm 2 mps 742 mmHg 90%
04:00 +13°C° 0 mm 2 mps 742 mmHg 90%
05:00 +12°C° 0 mm 3 mps 742 mmHg 90%
06:00 +14°C° 0 mm 3 mps 741 mmHg 86%
07:00 +16°C° 0 mm 3 mps 741 mmHg 83%
08:00 +18°C° 0 mm 4 mps 741 mmHg 79%
09:00 +19°C° 0 mm 4 mps 741 mmHg 74%
10:00 +20°C° 0 mm 4 mps 740 mmHg 69%
11:00 +22°C° 0 mm 4 mps 740 mmHg 65%
12:00 +23°C° 0 mm 4 mps 739 mmHg 64%
13:00 +25°C° 0 mm 5 mps 739 mmHg 62%
14:00 +26°C° 0 mm 6 mps 738 mmHg 61%
15:00 +26°C° 0 mm 5 mps 738 mmHg 62%
16:00 +25°C° 0 mm 5 mps 737 mmHg 63%
17:00 +25°C° 0 mm 5 mps 737 mmHg 64%
18:00 +22°C° 0 mm 5 mps 737 mmHg 70%
19:00 +21°C° 0 mm 4 mps 736 mmHg 76%
20:00 +19°C° 0 mm 4 mps 736 mmHg 82%
21:00 +18°C° 0 mm 4 mps 736 mmHg 83%
22:00 +18°C° 0 mm 4 mps 736 mmHg 85%
23:00 +17°C° 0 mm 5 mps 735 mmHg 86%

Day after tomorrow, 18 May, Tuesday

Time Temperature Precipitation Wind Pressure Humidity
00:00 +17°C° 0 mm 5 mps 735 mmHg 88%
01:00 +16°C° 0 mm 5 mps 735 mmHg 89%
02:00 +16°C° 0 mm 5 mps 735 mmHg 91%
03:00 +16°C° 0 mm 5 mps 735 mmHg 91%
04:00 +16°C° 0 mm 5 mps 734 mmHg 92%
05:00 +16°C° 0 mm 5 mps 734 mmHg 92%
06:00 +17°C° 0 mm 6 mps 734 mmHg 89%
07:00 +17°C° 0 mm 7 mps 734 mmHg 86%
08:00 +18°C° 0 mm 8 mps 734 mmHg 82%
09:00 +17°C° 0 mm 8 mps 735 mmHg 83%
10:00 +17°C° 0 mm 8 mps 735 mmHg 85%
11:00 +16°C° 0 mm 7 mps 735 mmHg 86%
12:00 +17°C° 0.1 mm 7 mps 735 mmHg 82%
13:00 +18°C° 0.1 mm 7 mps 736 mmHg 79%
14:00 +20°C° 0.1 mm 7 mps 736 mmHg 75%
15:00 +20°C° 0.1 mm 6 mps 736 mmHg 76%
16:00 +20°C° 0.1 mm 5 mps 736 mmHg 77%
17:00 +20°C° 0.1 mm 4 mps 736 mmHg 78%
18:00 +18°C° 0.5 mm 4 mps 736 mmHg 82%
19:00 +17°C° 0.5 mm 4 mps 736 mmHg 86%
20:00 +16°C° 0.5 mm 3 mps 736 mmHg 91%
21:00 +14°C° 0 mm 3 mps 736 mmHg 92%
22:00 +14°C° 0 mm 3 mps 736 mmHg 93%
23:00 +13°C° 0 mm 3 mps 736 mmHg 94%

19 May, Wednesday

Time Temperature Precipitation Wind Pressure Humidity
00:00 +14°C° 0 mm 2 mps 736 mmHg 94%
01:00 +14°C° 0 mm 2 mps 735 mmHg 93%
02:00 +14°C° 0 mm 2 mps 735 mmHg 93%
03:00 +14°C° 0 mm 2 mps 735 mmHg 93%
04:00 +14°C° 0 mm 2 mps 734 mmHg 92%
05:00 +14°C° 0 mm 2 mps 734 mmHg 92%
06:00 +15°C° 0.4 mm 2 mps 734 mmHg 93%
07:00 +15°C° 0.4 mm 2 mps 733 mmHg 93%
08:00 +16°C° 0.4 mm 2 mps 733 mmHg 94%
09:00 +16°C° 0.3 mm 3 mps 733 mmHg 91%
10:00 +17°C° 0.3 mm 4 mps 734 mmHg 88%
11:00 +16°C° 0.3 mm 5 mps 734 mmHg 85%
12:00 +17°C° 0.3 mm 5 mps 734 mmHg 82%
13:00 +17°C° 0.3 mm 5 mps 734 mmHg 78%
14:00 +19°C° 0.3 mm 5 mps 734 mmHg 75%
15:00 +19°C° 0.6 mm 5 mps 734 mmHg 78%
16:00 +17°C° 0.6 mm 5 mps 734 mmHg 81%
17:00 +17°C° 0.6 mm 5 mps 734 mmHg 85%
18:00 +15°C° 0.1 mm 4 mps 734 mmHg 88%
19:00 +14°C° 0.1 mm 3 mps 734 mmHg 92%
20:00 +14°C° 0.1 mm 2 mps 734 mmHg 95%
21:00 +14°C° 0.8 mm 2 mps 734 mmHg 96%
22:00 +14°C° 0.8 mm 2 mps 733 mmHg 97%
23:00 +13°C° 0.8 mm 3 mps 733 mmHg 97%

20 May, Thursday

Time Temperature Precipitation Wind Pressure Humidity
00:00 +12°C° 0.4 mm 3 mps 733 mmHg 97%
01:00 +12°C° 0.4 mm 3 mps 733 mmHg 97%
02:00 +11°C° 0.4 mm 3 mps 733 mmHg 97%
03:00 +11°C° 0.1 mm 3 mps 733 mmHg 97%
04:00 +11°C° 0.1 mm 3 mps 733 mmHg 96%
05:00 +11°C° 0.1 mm 3 mps 733 mmHg 96%
06:00 +11°C° 0 mm 3 mps 734 mmHg 95%
07:00 +11°C° 0 mm 3 mps 734 mmHg 94%
08:00 +11°C° 0 mm 3 mps 734 mmHg 92%
09:00 +11°C° 0.1 mm 3 mps 734 mmHg 92%
10:00 +11°C° 0.1 mm 4 mps 735 mmHg 92%
11:00 +11°C° 0.1 mm 4 mps 735 mmHg 91%
12:00 +10°C° 0.1 mm 5 mps 736 mmHg 91%
13:00 +9°C° 0.1 mm 6 mps 736 mmHg 92%
14:00 +9°C° 0.1 mm 7 mps 737 mmHg 92%
15:00 +9°C° 0 mm 6 mps 737 mmHg 89%
16:00 +10°C° 0 mm 6 mps 738 mmHg 87%
17:00 +11°C° 0 mm 6 mps 738 mmHg 85%
18:00 +10°C° 0 mm 5 mps 739 mmHg 86%
19:00 +11°C° 0 mm 4 mps 739 mmHg 88%
20:00 +10°C° 0 mm 3 mps 740 mmHg 89%
21:00 +9°C° 0 mm 3 mps 740 mmHg 91%
22:00 +9°C° 0 mm 3 mps 741 mmHg 93%
23:00 +8°C° 0 mm 3 mps 741 mmHg 95%

21 May, Friday

Time Temperature Precipitation Wind Pressure Humidity
00:00 +8°C° 0 mm 2 mps 741 mmHg 94%
01:00 +8°C° 0 mm 2 mps 741 mmHg 93%
02:00 +9°C° 0 mm 1 mps 741 mmHg 92%
03:00 +9°C° 0 mm 1 mps 742 mmHg 91%
04:00 +9°C° 0 mm 1 mps 742 mmHg 91%
05:00 +10°C° 0 mm 1 mps 742 mmHg 91%
06:00 +11°C° 0 mm 1 mps 741 mmHg 86%
07:00 +12°C° 0 mm 2 mps 741 mmHg 81%
08:00 +13°C° 0 mm 2 mps 741 mmHg 77%
09:00 +13°C° 0 mm 3 mps 741 mmHg 73%
10:00 +13°C° 0 mm 3 mps 740 mmHg 69%
11:00 +14°C° 0 mm 3 mps 740 mmHg 65%
12:00 +13°C° 0.5 mm 3 mps 740 mmHg 67%
13:00 +14°C° 0.5 mm 2 mps 740 mmHg 69%
14:00 +13°C° 0.5 mm 2 mps 740 mmHg 71%
15:00 +13°C° 0.4 mm 2 mps 740 mmHg 72%
16:00 +13°C° 0.4 mm 2 mps 740 mmHg 72%
17:00 +13°C° 0.4 mm 2 mps 739 mmHg 73%
18:00 +11°C° 0 mm 3 mps 740 mmHg 77%
19:00 +10°C° 0 mm 3 mps 740 mmHg 81%
20:00 +9°C° 0 mm 3 mps 740 mmHg 84%
21:00 +8°C° 0 mm 3 mps 741 mmHg 86%
22:00 +8°C° 0 mm 3 mps 741 mmHg 88%
23:00 +7°C° 0 mm 3 mps 742 mmHg 90%
Show more